Location: *
(17.3280°S, 114.7300°W)
Time: 07:22:23
(UTC+00:00)

COSMO-SKYMED 1 - Pass Details

Date: 05 August 2020
Orbit: 621 x 623 km, 97.9° (Epoch: 21 September)

Event Time Altitude Azimuth Distance (km) Brightness Sun altitude
Rises 13:12:04 0° 162° (SSE) 2,917 6.1 -12.5°
Reaches altitude 10° 13:14:19 10° 157° (SSE) 2,005 5.3 -12.0°
Maximum altitude 13:18:34 53° 80° (E) 770 3.5 -11.0°
Drops below altitude 10° 13:22:47 10° 2° (N) 1,985 5.4 -10.0°
Sets 13:25:00 0° 357° (N) 2,885 6.2 -9.5°
